Time,TemperatureF,DewpointF,PressureIn,WindDirection,WindDirectionDegrees,WindSpeedMPH,WindSpeedGustMPH,Humidity,HourlyPrecipIn,Conditions,Clouds,dailyrainin,SoftwareType,DateUTC
2013-04-27 00:01:00,66.5,60.1,30.19,NW,304,2.0,3.0,80,0.00,,,0.00,WeatherCatV1.02B3,2013-04-27 05:01:00,
2013-04-27 00:06:00,66.6,60.2,30.20,West,281,0.0,1.0,80,0.00,,,0.00,WeatherCatV1.02B3,2013-04-27 05:06:00,
2013-04-27 00:11:00,66.5,60.1,30.19,WSW,244,4.0,5.0,80,0.00,,,0.00,WeatherCatV1.02B3,2013-04-27 05:11:00,
2013-04-27 00:16:00,66.5,60.1,30.19,West,268,2.0,3.0,80,0.00,,,0.00,WeatherCatV1.02B3,2013-04-27 05:16:00,
2013-04-27 00:21:00,66.5,60.1,30.19,WSW,250,0.0,2.0,80,0.00,,,0.00,WeatherCatV1.02B3,2013-04-27 05:21:00,
2013-04-27 00:26:00,66.6,60.2,30.19,West,265,0.0,4.0,80,0.00,,,0.00,WeatherCatV1.02B3,2013-04-27 05:26:00,
2013-04-27 00:31:00,66.6,60.2,30.19,WNW,285,0.0,3.0,80,0.00,,,0.00,WeatherCatV1.02B3,2013-04-27 05:31:00,
2013-04-27 00:36:00,66.5,60.1,30.19,West,278,2.0,2.0,80,0.00,,,0.00,WeatherCatV1.02B3,2013-04-27 05:36:00,
2013-04-27 00:41:00,66.5,60.1,30.18,WSW,242,0.0,4.0,80,0.00,,,0.00,WeatherCatV1.02B3,2013-04-27 05:41:00,
2013-04-27 00:46:00,66.5,60.1,30.18,West,277,1.0,3.0,80,0.00,,,0.00,WeatherCatV1.02B3,2013-04-27 05:46:00,
2013-04-27 00:51:00,66.5,60.1,30.18,WSW,244,0.0,4.0,80,0.00,,,0.00,WeatherCatV1.02B3,2013-04-27 05:51:00,
2013-04-27 00:56:00,66.4,60.0,30.18,West,266,0.0,3.0,80,0.00,,,0.00,WeatherCatV1.02B3,2013-04-27 05:56:00,
2013-04-27 01:01:00,66.4,60.0,30.19,West,271,0.0,3.0,80,0.00,,,0.00,WeatherCatV1.02B3,2013-04-27 06:01:00,
2013-04-27 01:06:00,66.4,60.4,30.19,West,270,1.0,1.0,81,0.00,,,0.00,WeatherCatV1.02B3,2013-04-27 06:06:00,
2013-04-27 01:11:00,66.3,60.3,30.19,West,269,0.0,1.0,81,0.00,,,0.00,WeatherCatV1.02B3,2013-04-27 06:11:00,
2013-04-27 01:16:00,66.2,60.2,30.19,West,269,0.0,0.0,81,0.00,,,0.00,WeatherCatV1.02B3,2013-04-27 06:16:00,
2013-04-27 01:21:00,66.0,60.0,30.19,West,266,0.0,3.0,81,0.00,,,0.00,WeatherCatV1.02B3,2013-04-27 06:21:00,
2013-04-27 01:26:00,65.9,60.2,30.19,West,266,0.0,0.0,82,0.00,,,0.00,WeatherCatV1.02B3,2013-04-27 06:26:00,
2013-04-27 01:31:00,65.8,60.1,30.19,West,266,1.0,1.0,82,0.00,,,0.00,WeatherCatV1.02B3,2013-04-27 06:31:00,
2013-04-27 01:36:00,65.6,59.9,30.19,West,266,1.0,1.0,82,0.00,,,0.00,WeatherCatV1.02B3,2013-04-27 06:36:00,
2013-04-27 01:41:00,65.5,59.9,30.19,West,266,0.0,2.0,82,0.00,,,0.00,WeatherCatV1.02B3,2013-04-27 06:41:00,
2013-04-27 01:46:00,65.4,60.1,30.19,West,266,0.0,0.0,83,0.00,,,0.00,WeatherCatV1.02B3,2013-04-27 06:46:00,
2013-04-27 01:51:00,65.2,59.9,30.19,West,266,0.0,0.0,83,0.00,,,0.00,WeatherCatV1.02B3,2013-04-27 06:51:00,
2013-04-27 01:56:00,65.0,59.7,30.19,West,266,0.0,1.0,83,0.00,,,0.00,WeatherCatV1.02B3,2013-04-27 06:56:00,
2013-04-27 02:01:00,64.9,59.9,30.19,West,266,0.0,0.0,84,0.00,,,0.00,WeatherCatV1.02B3,2013-04-27 07:01:00,
2013-04-27 02:06:00,64.8,59.8,30.19,West,266,0.0,1.0,84,0.00,,,0.00,WeatherCatV1.02B3,2013-04-27 07:06:00,
2013-04-27 02:11:00,64.7,60.1,30.19,West,266,0.0,0.0,85,0.00,,,0.00,WeatherCatV1.02B3,2013-04-27 07:11:00,
2013-04-27 02:16:00,64.7,60.1,30.19,West,266,0.0,0.0,85,0.00,,,0.00,WeatherCatV1.02B3,2013-04-27 07:16:00,
2013-04-27 02:21:00,64.7,60.1,30.19,West,266,0.0,0.0,85,0.00,,,0.00,WeatherCatV1.02B3,2013-04-27 07:21:00,
2013-04-27 02:26:00,64.8,60.2,30.18,West,266,0.0,0.0,85,0.00,,,0.00,WeatherCatV1.02B3,2013-04-27 07:26:00,
2013-04-27 02:31:00,64.8,60.2,30.18,West,266,0.0,0.0,85,0.00,,,0.00,WeatherCatV1.02B3,2013-04-27 07:31:00,
2013-04-27 02:36:00,64.9,60.3,30.18,West,266,0.0,1.0,85,0.00,,,0.00,WeatherCatV1.02B3,2013-04-27 07:36:00,
2013-04-27 02:41:00,64.9,60.3,30.18,West,266,0.0,1.0,85,0.00,,,0.00,WeatherCatV1.02B3,2013-04-27 07:41:00,
2013-04-27 02:46:00,65.0,60.7,30.19,West,266,0.0,0.0,86,0.00,,,0.00,WeatherCatV1.02B3,2013-04-27 07:46:00,
2013-04-27 02:51:00,65.0,60.4,30.18,West,266,0.0,0.0,85,0.00,,,0.00,WeatherCatV1.02B3,2013-04-27 07:51:00,
2013-04-27 02:56:00,65.1,60.5,30.18,West,266,0.0,0.0,85,0.00,,,0.00,WeatherCatV1.02B3,2013-04-27 07:56:00,
2013-04-27 03:01:00,65.2,60.6,30.18,West,266,0.0,0.0,85,0.00,,,0.00,WeatherCatV1.02B3,2013-04-27 08:01:00,
2013-04-27 03:06:00,65.2,60.6,30.18,West,267,0.0,0.0,85,0.00,,,0.00,WeatherCatV1.02B3,2013-04-27 08:06:00,
2013-04-27 03:11:00,65.3,60.7,30.18,West,267,0.0,0.0,85,0.00,,,0.00,WeatherCatV1.02B3,2013-04-27 08:11:00,
2013-04-27 03:16:00,65.3,60.7,30.18,West,267,1.0,1.0,85,0.00,,,0.00,WeatherCatV1.02B3,2013-04-27 08:16:00,
2013-04-27 03:21:00,65.3,60.7,30.18,West,267,0.0,0.0,85,0.00,,,0.00,WeatherCatV1.02B3,2013-04-27 08:21:00,
2013-04-27 03:26:00,65.4,60.8,30.18,West,267,0.0,0.0,85,0.00,,,0.00,WeatherCatV1.02B3,2013-04-27 08:26:00,
2013-04-27 03:31:00,65.3,60.7,30.18,West,267,0.0,0.0,85,0.00,,,0.00,WeatherCatV1.02B3,2013-04-27 08:31:00,
2013-04-27 03:36:00,65.3,60.7,30.18,West,267,0.0,1.0,85,0.00,,,0.00,WeatherCatV1.02B3,2013-04-27 08:36:00,
2013-04-27 03:41:00,65.3,60.7,30.17,West,267,0.0,0.0,85,0.00,,,0.00,WeatherCatV1.02B3,2013-04-27 08:41:00,
2013-04-27 03:46:00,65.2,60.6,30.17,West,267,0.0,2.0,85,0.00,,,0.00,WeatherCatV1.02B3,2013-04-27 08:46:00,
2013-04-27 03:51:00,65.1,60.8,30.17,West,267,0.0,1.0,86,0.00,,,0.00,WeatherCatV1.02B3,2013-04-27 08:51:00,
2013-04-27 03:56:00,65.0,60.7,30.17,West,267,0.0,0.0,86,0.00,,,0.00,WeatherCatV1.02B3,2013-04-27 08:56:00,
2013-04-27 04:01:00,64.9,60.6,30.17,West,267,0.0,0.0,86,0.00,,,0.00,WeatherCatV1.02B3,2013-04-27 09:01:00,
2013-04-27 04:06:00,64.8,60.5,30.17,West,267,0.0,0.0,86,0.00,,,0.00,WeatherCatV1.02B3,2013-04-27 09:06:00,
2013-04-27 04:11:00,64.6,60.3,30.17,West,267,0.0,0.0,86,0.00,,,0.00,WeatherCatV1.02B3,2013-04-27 09:11:00,
2013-04-27 04:16:00,64.5,60.5,30.17,West,267,0.0,0.0,87,0.00,,,0.00,WeatherCatV1.02B3,2013-04-27 09:16:00,
2013-04-27 04:21:00,64.4,60.4,30.17,West,267,0.0,0.0,87,0.00,,,0.00,WeatherCatV1.02B3,2013-04-27 09:21:00,
2013-04-27 04:26:00,64.3,60.3,30.17,West,267,0.0,0.0,87,0.00,,,0.00,WeatherCatV1.02B3,2013-04-27 09:26:00,
2013-04-27 04:31:00,64.3,60.7,30.17,West,267,0.0,0.0,88,0.00,,,0.00,WeatherCatV1.02B3,2013-04-27 09:31:00,
2013-04-27 04:36:00,64.2,60.6,30.17,West,267,0.0,0.0,88,0.00,,,0.00,WeatherCatV1.02B3,2013-04-27 09:36:00,
2013-04-27 04:41:00,64.2,60.6,30.17,West,267,0.0,1.0,88,0.00,,,0.00,WeatherCatV1.02B3,2013-04-27 09:41:00,
2013-04-27 04:46:00,64.2,60.6,30.17,West,267,0.0,1.0,88,0.00,,,0.00,WeatherCatV1.02B3,2013-04-27 09:46:00,
2013-04-27 04:51:00,64.2,60.6,30.17,West,267,0.0,0.0,88,0.00,,,0.00,WeatherCatV1.02B3,2013-04-27 09:51:00,
2013-04-27 04:56:00,64.2,60.6,30.17,West,267,0.0,1.0,88,0.00,,,0.00,WeatherCatV1.02B3,2013-04-27 09:56:00,
2013-04-27 05:01:00,64.1,60.5,30.17,West,267,0.0,0.0,88,0.00,,,0.00,WeatherCatV1.02B3,2013-04-27 10:01:00,
2013-04-27 05:06:00,64.1,60.5,30.17,West,267,0.0,1.0,88,0.00,,,0.00,WeatherCatV1.02B3,2013-04-27 10:06:00,
2013-04-27 05:11:00,64.1,60.5,30.17,West,267,0.0,0.0,88,0.00,,,0.00,WeatherCatV1.02B3,2013-04-27 10:11:00,
2013-04-27 05:16:00,64.1,60.8,30.17,West,267,0.0,1.0,89,0.00,,,0.00,WeatherCatV1.02B3,2013-04-27 10:16:00,
2013-04-27 05:21:00,64.0,60.7,30.17,West,267,0.0,0.0,89,0.00,,,0.00,WeatherCatV1.02B3,2013-04-27 10:21:00,
2013-04-27 05:26:00,64.0,60.7,30.17,West,267,0.0,2.0,89,0.00,,,0.00,WeatherCatV1.02B3,2013-04-27 10:26:00,
2013-04-27 05:31:00,64.0,60.7,30.17,West,267,0.0,0.0,89,0.00,,,0.00,WeatherCatV1.02B3,2013-04-27 10:31:00,
2013-04-27 05:36:00,63.9,60.6,30.17,West,267,0.0,0.0,89,0.00,,,0.00,WeatherCatV1.02B3,2013-04-27 10:36:00,
2013-04-27 05:41:00,63.8,60.5,30.17,West,267,0.0,0.0,89,0.00,,,0.00,WeatherCatV1.02B3,2013-04-27 10:41:00,
2013-04-27 05:46:00,63.7,60.4,30.17,West,267,0.0,0.0,89,0.00,,,0.00,WeatherCatV1.02B3,2013-04-27 10:46:00,
2013-04-27 05:51:00,63.6,60.6,30.17,West,267,0.0,1.0,90,0.00,,,0.00,WeatherCatV1.02B3,2013-04-27 10:51:00,
2013-04-27 05:56:00,63.6,60.6,30.17,West,267,0.0,0.0,90,0.00,,,0.00,WeatherCatV1.02B3,2013-04-27 10:56:00,
2013-04-27 06:01:00,63.5,60.8,30.17,West,267,0.0,0.0,91,0.00,,,0.00,WeatherCatV1.02B3,2013-04-27 11:01:00,
2013-04-27 06:06:00,63.5,60.8,30.18,West,267,0.0,1.0,91,0.00,,,0.00,WeatherCatV1.02B3,2013-04-27 11:06:00,
2013-04-27 06:11:00,63.5,60.8,30.17,West,263,0.0,4.0,91,0.00,,,0.00,WeatherCatV1.02B3,2013-04-27 11:11:00,
2013-04-27 06:16:00,63.5,61.1,30.18,West,275,0.0,3.0,92,0.00,,,0.00,WeatherCatV1.02B3,2013-04-27 11:16:00,
2013-04-27 06:21:00,63.6,61.2,30.18,West,270,0.0,1.0,92,0.00,,,0.00,WeatherCatV1.02B3,2013-04-27 11:21:00,
2013-04-27 06:26:00,63.5,61.1,30.18,West,269,0.0,5.0,92,0.00,,,0.00,WeatherCatV1.02B3,2013-04-27 11:26:00,
2013-04-27 06:31:00,63.5,61.1,30.18,West,271,1.0,2.0,92,0.00,,,0.00,WeatherCatV1.02B3,2013-04-27 11:31:00,
2013-04-27 06:36:00,63.5,61.1,30.18,West,259,0.0,4.0,92,0.00,,,0.00,WeatherCatV1.02B3,2013-04-27 11:36:00,
2013-04-27 06:41:00,63.6,61.5,30.18,West,259,0.0,0.0,93,0.00,,,0.00,WeatherCatV1.02B3,2013-04-27 11:41:00,
2013-04-27 06:46:00,63.6,61.5,30.18,WSW,243,0.0,6.0,93,0.00,,,0.00,WeatherCatV1.02B3,2013-04-27 11:46:00,
2013-04-27 06:51:00,63.7,61.6,30.18,West,271,0.0,3.0,93,0.00,,,0.00,WeatherCatV1.02B3,2013-04-27 11:51:00,
2013-04-27 06:56:00,63.8,61.7,30.18,West,271,3.0,3.0,93,0.00,,,0.00,WeatherCatV1.02B3,2013-04-27 11:56:00,
2013-04-27 07:01:00,63.8,61.7,30.19,West,261,1.0,4.0,93,0.00,,,0.00,WeatherCatV1.02B3,2013-04-27 12:01:00,
2013-04-27 07:06:00,63.8,61.7,30.19,West,261,0.0,0.0,93,0.00,,,0.00,WeatherCatV1.02B3,2013-04-27 12:06:00,
2013-04-27 07:11:00,63.9,62.1,30.19,West,263,0.0,1.0,94,0.00,,,0.00,WeatherCatV1.02B3,2013-04-27 12:11:00,
2013-04-27 07:16:00,63.9,62.1,30.19,West,266,1.0,3.0,94,0.00,,,0.00,WeatherCatV1.02B3,2013-04-27 12:16:00,
2013-04-27 07:21:00,64.0,62.2,30.20,West,268,0.0,0.0,94,0.00,,,0.00,WeatherCatV1.02B3,2013-04-27 12:21:00,
2013-04-27 07:26:00,64.0,62.2,30.20,West,268,0.0,0.0,94,0.00,,,0.00,WeatherCatV1.02B3,2013-04-27 12:26:00,
2013-04-27 07:31:00,64.1,62.3,30.20,West,268,0.0,0.0,94,0.00,,,0.00,WeatherCatV1.02B3,2013-04-27 12:31:00,
2013-04-27 07:36:00,64.2,62.4,30.20,West,268,1.0,1.0,94,0.00,,,0.00,WeatherCatV1.02B3,2013-04-27 12:36:00,
2013-04-27 07:41:00,64.3,62.5,30.20,West,269,0.0,1.0,94,0.00,,,0.00,WeatherCatV1.02B3,2013-04-27 12:41:00,
2013-04-27 07:46:00,64.4,62.6,30.20,West,269,0.0,1.0,94,0.00,,,0.00,WeatherCatV1.02B3,2013-04-27 12:46:00,
2013-04-27 07:51:00,64.5,62.7,30.20,West,270,0.0,0.0,94,0.00,,,0.00,WeatherCatV1.02B3,2013-04-27 12:51:00,
2013-04-27 07:56:00,64.7,62.9,30.20,West,273,0.0,0.0,94,0.00,,,0.00,WeatherCatV1.02B3,2013-04-27 12:56:00,
2013-04-27 08:01:00,64.9,63.1,30.20,West,275,0.0,2.0,94,0.00,,,0.00,WeatherCatV1.02B3,2013-04-27 13:01:00,
2013-04-27 08:06:00,65.0,63.2,30.19,West,275,0.0,0.0,94,0.00,,,0.00,WeatherCatV1.02B3,2013-04-27 13:06:00,
2013-04-27 08:11:00,65.0,63.2,30.19,West,276,0.0,1.0,94,0.00,,,0.00,WeatherCatV1.02B3,2013-04-27 13:11:00,
2013-04-27 08:16:00,65.2,63.4,30.18,West,267,0.0,0.0,94,0.00,,,0.00,WeatherCatV1.02B3,2013-04-27 13:16:00,
2013-04-27 08:21:00,65.3,63.5,30.17,West,273,0.0,3.0,94,0.00,,,0.00,WeatherCatV1.02B3,2013-04-27 13:21:00,
2013-04-27 08:26:00,65.4,63.3,30.17,West,275,1.0,3.0,93,0.00,,,0.00,WeatherCatV1.02B3,2013-04-27 13:26:00,
2013-04-27 08:31:00,65.5,63.4,30.17,WSW,248,2.0,7.0,93,0.00,,,0.00,WeatherCatV1.02B3,2013-04-27 13:31:00,
2013-04-27 08:36:00,65.6,63.5,30.17,West,269,0.0,5.0,93,0.00,,,0.00,WeatherCatV1.02B3,2013-04-27 13:36:00,
2013-04-27 08:41:00,65.8,63.7,30.17,West,272,1.0,4.0,93,0.00,,,0.00,WeatherCatV1.02B3,2013-04-27 13:41:00,
2013-04-27 08:48:00,66.4,64.3,30.17,West,267,0.0,2.0,93,0.00,,,0.00,WeatherCatV1.02B3,2013-04-27 13:48:00,
2013-04-27 08:53:00,66.9,64.8,30.17,West,279,0.0,5.0,93,0.00,,,0.00,WeatherCatV1.02B3,2013-04-27 13:53:00,
2013-04-27 08:58:00,67.2,64.8,30.17,WSW,255,0.0,0.0,92,0.00,,,0.00,WeatherCatV1.02B3,2013-04-27 13:58:00,
2013-04-27 09:03:00,67.7,65.0,30.17,WSW,258,0.0,3.0,91,0.00,,,0.00,WeatherCatV1.02B3,2013-04-27 14:03:00,
2013-04-27 09:08:00,68.1,65.4,30.17,West,273,1.0,3.0,91,0.00,,,0.00,WeatherCatV1.02B3,2013-04-27 14:08:00,
2013-04-27 09:13:00,68.6,65.5,30.17,West,271,0.0,5.0,90,0.00,,,0.00,WeatherCatV1.02B3,2013-04-27 14:13:00,
2013-04-27 09:18:00,69.1,65.7,30.16,WNW,288,0.0,2.0,89,0.00,,,0.00,WeatherCatV1.02B3,2013-04-27 14:18:00,
2013-04-27 09:23:00,69.6,66.2,30.16,West,267,3.0,4.0,89,0.00,,,0.00,WeatherCatV1.02B3,2013-04-27 14:23:00,
2013-04-27 09:28:00,69.9,66.2,30.16,West,267,1.0,1.0,88,0.00,,,0.00,WeatherCatV1.02B3,2013-04-27 14:28:00,
2013-04-27 09:33:00,70.3,66.2,30.16,WNW,292,0.0,1.0,87,0.00,,,0.00,WeatherCatV1.02B3,2013-04-27 14:33:00,
2013-04-27 09:38:00,70.7,66.6,30.16,WNW,285,2.0,2.0,87,0.00,,,0.00,WeatherCatV1.02B3,2013-04-27 14:38:00,
2013-04-27 09:43:00,71.3,66.9,30.16,WNW,287,0.0,2.0,86,0.00,,,0.00,WeatherCatV1.02B3,2013-04-27 14:43:00,
2013-04-27 09:48:00,71.9,66.8,30.16,West,277,0.0,1.0,84,0.00,,,0.00,WeatherCatV1.02B3,2013-04-27 14:48:00,
2013-04-27 09:53:00,72.3,66.8,30.16,West,273,1.0,5.0,83,0.00,,,0.00,WeatherCatV1.02B3,2013-04-27 14:53:00,
2013-04-27 09:58:00,72.7,66.5,30.16,NNW,346,0.0,4.0,81,0.00,,,0.00,WeatherCatV1.02B3,2013-04-27 14:58:00,
2013-04-27 10:03:00,73.1,66.9,30.16,WSW,238,0.0,4.0,81,0.00,,,0.00,WeatherCatV1.02B3,2013-04-27 15:03:00,
2013-04-27 10:08:00,73.6,67.0,30.16,WSW,252,4.0,4.0,80,0.00,,,0.00,WeatherCatV1.02B3,2013-04-27 15:08:00,
2013-04-27 10:13:00,73.9,67.0,30.16,WNW,291,0.0,8.0,79,0.00,,,0.00,WeatherCatV1.02B3,2013-04-27 15:13:00,
2013-04-27 10:18:00,74.2,67.3,30.16,WSW,256,1.0,5.0,79,0.00,,,0.00,WeatherCatV1.02B3,2013-04-27 15:18:00,
2013-04-27 10:23:00,74.6,67.3,30.15,West,269,0.0,3.0,78,0.00,,,0.00,WeatherCatV1.02B3,2013-04-27 15:23:00,
2013-04-27 10:28:00,75.0,67.3,30.15,WSW,256,2.0,6.0,77,0.00,,,0.00,WeatherCatV1.02B3,2013-04-27 15:28:00,
2013-04-27 10:33:00,75.5,67.4,30.15,WSW,242,6.0,8.0,76,0.00,,,0.00,WeatherCatV1.02B3,2013-04-27 15:33:00,
2013-04-27 10:38:00,75.9,67.4,30.14,West,267,6.0,9.0,75,0.00,,,0.00,WeatherCatV1.02B3,2013-04-27 15:38:00,
2013-04-27 10:43:00,76.2,67.3,30.14,West,275,1.0,7.0,74,0.00,,,0.00,WeatherCatV1.02B3,2013-04-27 15:43:00,
2013-04-27 10:48:00,76.7,68.2,30.14,WSW,257,4.0,9.0,75,0.00,,,0.00,WeatherCatV1.02B3,2013-04-27 15:48:00,
2013-04-27 10:53:00,77.2,67.0,30.15,WNW,288,1.0,5.0,71,0.00,,,0.00,WeatherCatV1.02B3,2013-04-27 15:53:00,
2013-04-27 10:58:00,77.5,67.3,30.15,WSW,244,2.0,6.0,71,0.00,,,0.00,WeatherCatV1.02B3,2013-04-27 15:58:00,
2013-04-27 11:03:00,77.9,67.3,30.15,West,272,0.0,4.0,70,0.00,,,0.00,WeatherCatV1.02B3,2013-04-27 16:03:00,
2013-04-27 11:08:00,78.0,67.0,30.15,NW,306,1.0,5.0,69,0.00,,,0.00,WeatherCatV1.02B3,2013-04-27 16:08:00,
2013-04-27 11:13:00,78.2,67.2,30.15,WNW,290,2.0,7.0,69,0.00,,,0.00,WeatherCatV1.02B3,2013-04-27 16:13:00,
2013-04-27 11:18:00,78.5,67.0,30.15,NNW,346,1.0,6.0,68,0.00,,,0.00,WeatherCatV1.02B3,2013-04-27 16:18:00,
2013-04-27 11:23:00,78.4,66.5,30.15,WNW,294,0.0,9.0,67,0.00,,,0.00,WeatherCatV1.02B3,2013-04-27 16:23:00,
2013-04-27 11:28:00,78.2,66.3,30.15,WSW,251,3.0,4.0,67,0.00,,,0.00,WeatherCatV1.02B3,2013-04-27 16:28:00,
2013-04-27 11:33:00,78.4,66.9,30.15,West,273,1.0,3.0,68,0.00,,,0.00,WeatherCatV1.02B3,2013-04-27 16:33:00,
2013-04-27 11:38:00,78.5,66.2,30.15,NW,314,0.0,3.0,66,0.00,,,0.00,WeatherCatV1.02B3,2013-04-27 16:38:00,
2013-04-27 11:43:00,78.8,66.9,30.15,NW,309,0.0,4.0,67,0.00,,,0.00,WeatherCatV1.02B3,2013-04-27 16:43:00,
2013-04-27 11:48:00,78.6,65.8,30.14,NW,309,0.0,1.0,65,0.00,,,0.00,WeatherCatV1.02B3,2013-04-27 16:48:00,
2013-04-27 11:53:00,78.7,66.8,30.14,West,262,0.0,2.0,67,0.00,,,0.00,WeatherCatV1.02B3,2013-04-27 16:53:00,
2013-04-27 11:58:00,78.9,66.6,30.14,West,261,0.0,2.0,66,0.00,,,0.00,WeatherCatV1.02B3,2013-04-27 16:58:00,
2013-04-27 12:03:00,79.1,66.7,30.14,West,263,0.0,2.0,66,0.00,,,0.00,WeatherCatV1.02B3,2013-04-27 17:03:00,
2013-04-27 12:08:00,79.0,66.2,30.14,WNW,298,0.0,1.0,65,0.00,,,0.00,WeatherCatV1.02B3,2013-04-27 17:08:00,
2013-04-27 12:13:00,78.9,66.6,30.14,West,260,0.0,2.0,66,0.00,,,0.00,WeatherCatV1.02B3,2013-04-27 17:13:00,
2013-04-27 12:18:00,78.9,66.6,30.14,NW,319,0.0,2.0,66,0.00,,,0.00,WeatherCatV1.02B3,2013-04-27 17:18:00,
2013-04-27 12:23:00,78.6,66.3,30.14,West,259,1.0,2.0,66,0.00,,,0.00,WeatherCatV1.02B3,2013-04-27 17:23:00,
2013-04-27 12:28:00,78.5,66.2,30.13,WNW,286,1.0,3.0,66,0.00,,,0.00,WeatherCatV1.02B3,2013-04-27 17:28:00,
2013-04-27 12:33:00,78.7,66.8,30.12,WNW,300,0.0,1.0,67,0.00,,,0.00,WeatherCatV1.02B3,2013-04-27 17:33:00,
2013-04-27 12:38:00,79.3,67.4,30.12,West,272,4.0,7.0,67,0.00,,,0.00,WeatherCatV1.02B3,2013-04-27 17:38:00,
2013-04-27 12:43:00,80.0,66.7,30.12,WNW,293,3.0,7.0,64,0.00,,,0.00,WeatherCatV1.02B3,2013-04-27 17:43:00,
2013-04-27 12:48:00,80.4,68.0,30.12,West,271,9.0,9.0,66,0.00,,,0.00,WeatherCatV1.02B3,2013-04-27 17:48:00,
2013-04-27 12:53:00,81.2,67.8,30.12,NW,304,0.0,4.0,64,0.00,,,0.00,WeatherCatV1.02B3,2013-04-27 17:53:00,
2013-04-27 12:58:00,81.8,67.9,30.11,WNW,287,0.0,4.0,63,0.00,,,0.00,WeatherCatV1.02B3,2013-04-27 17:58:00,
2013-04-27 13:03:00,82.1,67.8,30.11,WNW,296,3.0,9.0,62,0.00,,,0.00,WeatherCatV1.02B3,2013-04-27 18:03:00,
2013-04-27 13:08:00,82.5,68.1,30.11,West,267,1.0,6.0,62,0.00,,,0.00,WeatherCatV1.02B3,2013-04-27 18:08:00,
2013-04-27 13:13:00,82.0,66.2,30.11,WNW,284,0.0,3.0,59,0.00,,,0.00,WeatherCatV1.02B3,2013-04-27 18:13:00,
2013-04-27 13:18:00,81.6,67.8,30.10,NW,320,0.0,3.0,63,0.00,,,0.00,WeatherCatV1.02B3,2013-04-27 18:18:00,
2013-04-27 13:23:00,82.0,67.7,30.10,WNW,283,0.0,3.0,62,0.00,,,0.00,WeatherCatV1.02B3,2013-04-27 18:23:00,
2013-04-27 13:28:00,82.8,67.0,30.10,West,275,0.0,5.0,59,0.00,,,0.00,WeatherCatV1.02B3,2013-04-27 18:28:00,
2013-04-27 13:33:00,82.5,66.7,30.10,WNW,286,1.0,5.0,59,0.00,,,0.00,WeatherCatV1.02B3,2013-04-27 18:33:00,
2013-04-27 13:38:00,81.7,66.9,30.11,West,273,0.0,6.0,61,0.00,,,0.00,WeatherCatV1.02B3,2013-04-27 18:38:00,
2013-04-27 13:43:00,80.9,66.6,30.11,WSW,254,2.0,4.0,62,0.00,,,0.00,WeatherCatV1.02B3,2013-04-27 18:43:00,
2013-04-27 13:48:00,81.1,67.3,30.11,WSW,244,0.0,5.0,63,0.00,,,0.00,WeatherCatV1.02B3,2013-04-27 18:48:00,
2013-04-27 13:53:00,80.9,66.2,30.10,NNW,327,0.0,3.0,61,0.00,,,0.00,WeatherCatV1.02B3,2013-04-27 18:53:00,
2013-04-27 13:58:00,80.2,66.4,30.10,NW,305,0.0,3.0,63,0.00,,,0.00,WeatherCatV1.02B3,2013-04-27 18:58:00,
2013-04-27 14:03:00,79.7,66.4,30.10,West,265,0.0,4.0,64,0.00,,,0.00,WeatherCatV1.02B3,2013-04-27 19:03:00,
2013-04-27 14:08:00,79.5,66.2,30.10,NNW,329,0.0,3.0,64,0.00,,,0.00,WeatherCatV1.02B3,2013-04-27 19:08:00,
2013-04-27 14:13:00,79.3,66.0,30.10,NNW,345,2.0,5.0,64,0.00,,,0.00,WeatherCatV1.02B3,2013-04-27 19:13:00,
2013-04-27 14:18:00,79.2,66.4,30.10,NNW,340,1.0,1.0,65,0.00,,,0.00,WeatherCatV1.02B3,2013-04-27 19:18:00,
2013-04-27 14:23:00,79.1,66.3,30.10,NW,323,0.0,1.0,65,0.00,,,0.00,WeatherCatV1.02B3,2013-04-27 19:23:00,
2013-04-27 14:28:00,79.2,66.8,30.10,NNW,329,1.0,1.0,66,0.00,,,0.00,WeatherCatV1.02B3,2013-04-27 19:28:00,
2013-04-27 14:34:00,79.2,66.4,30.10,WNW,282,0.0,2.0,65,0.00,,,0.00,WeatherCatV1.02B3,2013-04-27 19:34:00,
2013-04-27 14:39:00,79.1,66.3,30.08,West,276,0.0,1.0,65,0.00,,,0.00,WeatherCatV1.02B3,2013-04-27 19:39:00,
2013-04-27 14:44:00,78.9,65.2,30.09,WSW,253,0.0,3.0,63,0.00,,,0.00,WeatherCatV1.02B3,2013-04-27 19:44:00,
2013-04-27 14:49:00,78.9,65.2,30.09,NW,325,0.0,3.0,63,0.00,,,0.00,WeatherCatV1.02B3,2013-04-27 19:49:00,
2013-04-27 14:54:00,78.8,66.0,30.08,West,266,0.0,1.0,65,0.00,,,0.00,WeatherCatV1.02B3,2013-04-27 19:54:00,
2013-04-27 14:59:00,78.5,64.4,30.08,West,267,5.0,7.0,62,0.00,,,0.00,WeatherCatV1.02B3,2013-04-27 19:59:00,
2013-04-27 15:04:00,78.3,65.1,30.08,West,273,0.0,2.0,64,0.00,,,0.00,WeatherCatV1.02B3,2013-04-27 20:04:00,
2013-04-27 15:09:00,78.2,65.0,30.08,West,273,1.0,4.0,64,0.00,,,0.00,WeatherCatV1.02B3,2013-04-27 20:09:00,
2013-04-27 15:14:00,78.0,65.3,30.08,North,350,0.0,0.0,65,0.00,,,0.00,WeatherCatV1.02B3,2013-04-27 20:14:00,
2013-04-27 15:19:00,77.9,65.6,30.08,NNW,338,0.0,1.0,66,0.00,,,0.00,WeatherCatV1.02B3,2013-04-27 20:19:00,
2013-04-27 15:24:00,77.7,65.4,30.08,NNW,331,0.0,3.0,66,0.00,,,0.00,WeatherCatV1.02B3,2013-04-27 20:24:00,
2013-04-27 15:29:00,77.7,65.8,30.08,NNW,331,1.0,2.0,67,0.00,,,0.00,WeatherCatV1.02B3,2013-04-27 20:29:00,
2013-04-27 15:34:00,78.2,65.9,30.08,NNW,330,1.0,2.0,66,0.00,,,0.00,WeatherCatV1.02B3,2013-04-27 20:34:00,
2013-04-27 15:39:00,78.8,66.5,30.07,WNW,303,0.0,0.0,66,0.00,,,0.00,WeatherCatV1.02B3,2013-04-27 20:39:00,
2013-04-27 15:44:00,78.9,67.0,30.07,WNW,303,0.0,1.0,67,0.00,,,0.00,WeatherCatV1.02B3,2013-04-27 20:44:00,
2013-04-27 15:49:00,78.8,66.5,30.07,SW,230,0.0,1.0,66,0.00,,,0.00,WeatherCatV1.02B3,2013-04-27 20:49:00,
2013-04-27 15:54:00,78.7,66.8,30.07,WNW,286,1.0,2.0,67,0.00,,,0.00,WeatherCatV1.02B3,2013-04-27 20:54:00,
2013-04-27 15:59:00,78.6,66.7,30.06,West,271,0.0,1.0,67,0.00,,,0.00,WeatherCatV1.02B3,2013-04-27 20:59:00,
2013-04-27 16:04:00,78.8,66.9,30.07,West,277,2.0,7.0,67,0.00,,,0.00,WeatherCatV1.02B3,2013-04-27 21:04:00,
2013-04-27 16:09:00,79.4,67.0,30.06,West,277,1.0,5.0,66,0.00,,,0.00,WeatherCatV1.02B3,2013-04-27 21:09:00,
2013-04-27 16:14:00,80.4,67.5,30.06,WNW,294,0.0,3.0,65,0.00,,,0.00,WeatherCatV1.02B3,2013-04-27 21:14:00,
2013-04-27 16:19:00,80.5,67.2,30.06,West,263,0.0,6.0,64,0.00,,,0.00,WeatherCatV1.02B3,2013-04-27 21:19:00,
2013-04-27 16:24:00,80.2,66.9,30.06,West,259,1.0,6.0,64,0.00,,,0.00,WeatherCatV1.02B3,2013-04-27 21:24:00,
2013-04-27 16:29:00,79.9,66.6,30.05,West,261,0.0,5.0,64,0.00,,,0.00,WeatherCatV1.02B3,2013-04-27 21:29:00,
2013-04-27 16:34:00,79.6,67.2,30.05,West,260,0.0,2.0,66,0.00,,,0.00,WeatherCatV1.02B3,2013-04-27 21:34:00,
2013-04-27 16:39:00,79.4,67.0,30.05,WSW,239,3.0,5.0,66,0.00,,,0.00,WeatherCatV1.02B3,2013-04-27 21:39:00,
2013-04-27 16:44:00,79.3,66.9,30.05,West,277,1.0,5.0,66,0.00,,,0.00,WeatherCatV1.02B3,2013-04-27 21:44:00,
2013-04-27 16:49:00,80.0,67.6,30.04,WSW,247,0.0,7.0,66,0.00,,,0.00,WeatherCatV1.02B3,2013-04-27 21:49:00,
2013-04-27 16:54:00,80.6,67.7,30.04,WSW,258,2.0,4.0,65,0.00,,,0.00,WeatherCatV1.02B3,2013-04-27 21:54:00,
2013-04-27 16:59:00,80.9,68.0,30.04,West,277,1.0,1.0,65,0.00,,,0.00,WeatherCatV1.02B3,2013-04-27 21:59:00,
2013-04-27 17:04:00,80.8,67.9,30.04,West,277,6.0,6.0,65,0.00,,,0.00,WeatherCatV1.02B3,2013-04-27 22:04:00,
2013-04-27 17:09:00,80.5,67.2,30.04,WSW,240,3.0,9.0,64,0.00,,,0.00,WeatherCatV1.02B3,2013-04-27 22:09:00,
2013-04-27 17:14:00,80.0,67.2,30.04,WSW,252,7.0,7.0,65,0.00,,,0.00,WeatherCatV1.02B3,2013-04-27 22:14:00,
2013-04-27 17:19:00,79.5,67.1,30.04,WNW,291,1.0,6.0,66,0.00,,,0.00,WeatherCatV1.02B3,2013-04-27 22:19:00,
2013-04-27 17:24:00,79.5,66.7,30.04,WNW,301,1.0,6.0,65,0.00,,,0.00,WeatherCatV1.02B3,2013-04-27 22:24:00,
2013-04-27 17:29:00,79.4,67.5,30.03,West,260,0.0,6.0,67,0.00,,,0.00,WeatherCatV1.02B3,2013-04-27 22:29:00,
2013-04-27 17:34:00,79.7,67.3,30.03,NNW,339,0.0,3.0,66,0.00,,,0.00,WeatherCatV1.02B3,2013-04-27 22:34:00,
2013-04-27 17:39:00,79.7,67.3,30.03,West,278,2.0,5.0,66,0.00,,,0.00,WeatherCatV1.02B3,2013-04-27 22:39:00,
2013-04-27 17:44:00,79.6,67.2,30.03,NW,319,4.0,4.0,66,0.00,,,0.00,WeatherCatV1.02B3,2013-04-27 22:44:00,
2013-04-27 17:49:00,79.4,67.5,30.03,NW,319,3.0,7.0,67,0.00,,,0.00,WeatherCatV1.02B3,2013-04-27 22:49:00,
2013-04-27 17:54:00,79.4,67.5,30.03,NNW,331,1.0,1.0,67,0.00,,,0.00,WeatherCatV1.02B3,2013-04-27 22:54:00,
2013-04-27 17:59:00,79.1,66.7,30.02,WNW,284,0.0,4.0,66,0.00,,,0.00,WeatherCatV1.02B3,2013-04-27 22:59:00,
2013-04-27 18:04:00,78.9,67.0,30.02,West,276,3.0,8.0,67,0.00,,,0.00,WeatherCatV1.02B3,2013-04-27 23:04:00,
2013-04-27 18:09:00,78.6,66.7,30.02,NNE,22,0.0,5.0,67,0.00,,,0.00,WeatherCatV1.02B3,2013-04-27 23:09:00,
2013-04-27 18:14:00,78.5,67.0,30.02,West,261,0.0,5.0,68,0.00,,,0.00,WeatherCatV1.02B3,2013-04-27 23:14:00,
2013-04-27 18:19:00,78.4,66.9,30.02,WNW,298,1.0,2.0,68,0.00,,,0.00,WeatherCatV1.02B3,2013-04-27 23:19:00,
2013-04-27 18:24:00,78.3,66.8,30.02,WNW,288,0.0,2.0,68,0.00,,,0.00,WeatherCatV1.02B3,2013-04-27 23:24:00,
2013-04-27 18:29:00,78.2,67.2,30.02,WNW,288,0.0,1.0,69,0.00,,,0.00,WeatherCatV1.02B3,2013-04-27 23:29:00,
2013-04-27 18:34:00,78.0,67.0,30.02,WNW,299,0.0,2.0,69,0.00,,,0.00,WeatherCatV1.02B3,2013-04-27 23:34:00,
2013-04-27 18:39:00,77.8,66.8,30.02,WNW,290,0.0,3.0,69,0.00,,,0.00,WeatherCatV1.02B3,2013-04-27 23:39:00,
2013-04-27 18:44:00,77.5,66.5,30.02,WNW,289,0.0,2.0,69,0.00,,,0.00,WeatherCatV1.02B3,2013-04-27 23:44:00,
2013-04-27 18:49:00,77.3,66.7,30.02,WNW,293,0.0,2.0,70,0.00,,,0.00,WeatherCatV1.02B3,2013-04-27 23:49:00,
2013-04-27 18:54:00,77.1,66.5,30.02,WSW,254,4.0,5.0,70,0.00,,,0.00,WeatherCatV1.02B3,2013-04-27 23:54:00,
2013-04-27 18:59:00,76.9,66.8,30.02,West,281,1.0,3.0,71,0.00,,,0.00,WeatherCatV1.02B3,2013-04-27 23:59:00,
2013-04-27 19:04:00,76.7,66.6,30.02,WNW,289,0.0,5.0,71,0.00,,,0.00,WeatherCatV1.02B3,2013-04-28 00:04:00,
2013-04-27 19:09:00,76.5,66.8,30.02,WNW,292,0.0,1.0,72,0.00,,,0.00,WeatherCatV1.02B3,2013-04-28 00:09:00,
2013-04-27 19:14:00,76.4,66.7,30.02,WNW,286,0.0,1.0,72,0.00,,,0.00,WeatherCatV1.02B3,2013-04-28 00:14:00,
2013-04-27 19:19:00,76.2,66.9,30.02,WNW,288,4.0,4.0,73,0.00,,,0.00,WeatherCatV1.02B3,2013-04-28 00:19:00,
2013-04-27 19:24:00,75.9,66.6,30.02,WNW,288,0.0,1.0,73,0.00,,,0.00,WeatherCatV1.02B3,2013-04-28 00:24:00,
2013-04-27 19:29:00,75.7,66.4,30.01,WNW,288,2.0,2.0,73,0.00,,,0.00,WeatherCatV1.02B3,2013-04-28 00:29:00,
2013-04-27 19:34:00,75.5,66.6,30.01,WNW,290,0.0,1.0,74,0.00,,,0.00,WeatherCatV1.02B3,2013-04-28 00:34:00,
2013-04-27 19:39:00,75.2,66.3,30.01,WNW,286,0.0,2.0,74,0.00,,,0.00,WeatherCatV1.02B3,2013-04-28 00:39:00,
2013-04-27 19:44:00,75.0,66.5,30.01,WNW,300,1.0,3.0,75,0.00,,,0.00,WeatherCatV1.02B3,2013-04-28 00:44:00,
2013-04-27 19:49:00,74.9,66.4,30.02,WNW,286,0.0,0.0,75,0.00,,,0.00,WeatherCatV1.02B3,2013-04-28 00:49:00,
2013-04-27 19:54:00,74.7,66.6,30.02,WNW,283,0.0,1.0,76,0.00,,,0.00,WeatherCatV1.02B3,2013-04-28 00:54:00,
2013-04-27 19:59:00,74.5,66.4,30.02,WNW,283,0.0,1.0,76,0.00,,,0.00,WeatherCatV1.02B3,2013-04-28 00:59:00,
2013-04-27 20:04:00,74.3,66.2,30.01,West,277,0.0,2.0,76,0.00,,,0.00,WeatherCatV1.02B3,2013-04-28 01:04:00,
2013-04-27 20:09:00,74.2,66.5,30.01,West,277,1.0,1.0,77,0.00,,,0.00,WeatherCatV1.02B3,2013-04-28 01:09:00,
2013-04-27 20:14:00,74.1,66.4,30.01,West,277,0.0,1.0,77,0.00,,,0.00,WeatherCatV1.02B3,2013-04-28 01:14:00,
2013-04-27 20:19:00,74.0,66.3,30.01,WNW,286,1.0,2.0,77,0.00,,,0.00,WeatherCatV1.02B3,2013-04-28 01:19:00,
2013-04-27 20:24:00,73.9,66.6,30.01,WNW,286,0.0,2.0,78,0.00,,,0.00,WeatherCatV1.02B3,2013-04-28 01:24:00,
2013-04-27 20:29:00,73.9,66.6,30.01,WNW,286,0.0,1.0,78,0.00,,,0.00,WeatherCatV1.02B3,2013-04-28 01:29:00,
2013-04-27 20:34:00,73.8,66.5,30.02,WNW,286,0.0,0.0,78,0.00,,,0.00,WeatherCatV1.02B3,2013-04-28 01:34:00,
2013-04-27 20:39:00,73.7,66.4,30.03,WNW,286,0.0,0.0,78,0.00,,,0.00,WeatherCatV1.02B3,2013-04-28 01:39:00,
2013-04-27 20:44:00,73.7,66.4,30.03,WNW,286,1.0,1.0,78,0.00,,,0.00,WeatherCatV1.02B3,2013-04-28 01:44:00,
2013-04-27 20:49:00,73.7,66.8,30.04,WNW,286,0.0,1.0,79,0.00,,,0.00,WeatherCatV1.02B3,2013-04-28 01:49:00,
2013-04-27 20:54:00,73.7,66.8,30.03,WNW,286,0.0,0.0,79,0.00,,,0.00,WeatherCatV1.02B3,2013-04-28 01:54:00,
2013-04-27 20:59:00,73.7,66.8,30.03,WNW,286,0.0,0.0,79,0.00,,,0.00,WeatherCatV1.02B3,2013-04-28 01:59:00,
2013-04-27 21:04:00,73.7,66.8,30.02,WNW,286,0.0,2.0,79,0.00,,,0.00,WeatherCatV1.02B3,2013-04-28 02:04:00,
2013-04-27 21:09:00,73.7,66.8,30.03,WNW,291,0.0,1.0,79,0.00,,,0.00,WeatherCatV1.02B3,2013-04-28 02:09:00,
2013-04-27 21:14:00,73.6,66.7,30.03,NNW,327,0.0,3.0,79,0.00,,,0.00,WeatherCatV1.02B3,2013-04-28 02:14:00,
2013-04-27 21:19:00,73.5,66.6,30.03,NW,325,0.0,1.0,79,0.00,,,0.00,WeatherCatV1.02B3,2013-04-28 02:19:00,
2013-04-27 21:24:00,73.4,66.5,30.03,NW,325,0.0,1.0,79,0.00,,,0.00,WeatherCatV1.02B3,2013-04-28 02:24:00,
2013-04-27 21:29:00,73.3,66.4,30.03,WNW,302,0.0,2.0,79,0.00,,,0.00,WeatherCatV1.02B3,2013-04-28 02:29:00,
2013-04-27 21:34:00,73.2,66.6,30.04,WNW,302,0.0,1.0,80,0.00,,,0.00,WeatherCatV1.02B3,2013-04-28 02:34:00,
2013-04-27 21:39:00,73.0,66.5,30.04,WNW,302,0.0,1.0,80,0.00,,,0.00,WeatherCatV1.02B3,2013-04-28 02:39:00,
2013-04-27 21:44:00,72.9,66.7,30.05,WNW,302,0.0,0.0,81,0.00,,,0.00,WeatherCatV1.02B3,2013-04-28 02:44:00,
2013-04-27 21:49:00,72.9,66.7,30.05,WNW,300,0.0,1.0,81,0.00,,,0.00,WeatherCatV1.02B3,2013-04-28 02:49:00,
2013-04-27 21:54:00,72.8,66.6,30.05,WNW,296,0.0,2.0,81,0.00,,,0.00,WeatherCatV1.02B3,2013-04-28 02:54:00,
2013-04-27 21:59:00,72.8,66.6,30.05,WNW,290,0.0,2.0,81,0.00,,,0.00,WeatherCatV1.02B3,2013-04-28 02:59:00,
2013-04-27 22:04:00,72.9,66.7,30.05,WNW,298,0.0,4.0,81,0.00,,,0.00,WeatherCatV1.02B3,2013-04-28 03:04:00,
2013-04-27 22:09:00,73.0,66.8,30.05,WNW,296,0.0,4.0,81,0.00,,,0.00,WeatherCatV1.02B3,2013-04-28 03:09:00,
2013-04-27 22:14:00,72.9,66.7,30.05,NW,323,0.0,3.0,81,0.00,,,0.00,WeatherCatV1.02B3,2013-04-28 03:14:00,
2013-04-27 22:19:00,72.9,66.7,30.05,WNW,292,0.0,5.0,81,0.00,,,0.00,WeatherCatV1.02B3,2013-04-28 03:19:00,
2013-04-27 22:24:00,72.7,66.5,30.05,WNW,301,0.0,2.0,81,0.00,,,0.00,WeatherCatV1.02B3,2013-04-28 03:24:00,
2013-04-27 22:29:00,72.6,66.8,30.04,WNW,302,0.0,3.0,82,0.00,,,0.00,WeatherCatV1.02B3,2013-04-28 03:29:00,
2013-04-27 22:34:00,72.5,66.7,30.05,WNW,302,0.0,1.0,82,0.00,,,0.00,WeatherCatV1.02B3,2013-04-28 03:34:00,
2013-04-27 22:39:00,72.3,66.8,30.04,WNW,302,0.0,0.0,83,0.00,,,0.00,WeatherCatV1.02B3,2013-04-28 03:39:00,
2013-04-27 22:44:00,72.1,66.6,30.04,WNW,299,0.0,2.0,83,0.00,,,0.00,WeatherCatV1.02B3,2013-04-28 03:44:00,
2013-04-27 22:49:00,72.0,66.5,30.04,WNW,299,0.0,2.0,83,0.00,,,0.00,WeatherCatV1.02B3,2013-04-28 03:49:00,
2013-04-27 22:54:00,71.8,66.7,30.04,WNW,292,1.0,3.0,84,0.00,,,0.00,WeatherCatV1.02B3,2013-04-28 03:54:00,
2013-04-27 22:59:00,71.7,66.6,30.05,West,273,0.0,3.0,84,0.00,,,0.00,WeatherCatV1.02B3,2013-04-28 03:59:00,
2013-04-27 23:01:00,71.7,66.6,30.05,WNW,297,1.0,4.0,84,0.00,,,0.00,WeatherCatV1.02B3,2013-04-28 04:01:00,
2013-04-27 23:06:00,71.6,66.8,30.05,West,279,1.0,4.0,85,0.00,,,0.00,WeatherCatV1.02B3,2013-04-28 04:06:00,
2013-04-27 23:11:00,71.5,66.7,30.05,WNW,300,2.0,2.0,85,0.00,,,0.00,WeatherCatV1.02B3,2013-04-28 04:11:00,
2013-04-27 23:16:00,71.4,66.6,30.05,WNW,288,1.0,3.0,85,0.00,,,0.00,WeatherCatV1.02B3,2013-04-28 04:16:00,
2013-04-27 23:21:00,71.3,66.5,30.04,WNW,288,0.0,1.0,85,0.00,,,0.00,WeatherCatV1.02B3,2013-04-28 04:21:00,
2013-04-27 23:26:00,71.2,66.8,30.04,WNW,294,2.0,4.0,86,0.00,,,0.00,WeatherCatV1.02B3,2013-04-28 04:26:00,
2013-04-27 23:31:00,71.2,66.8,30.04,West,270,1.0,4.0,86,0.00,,,0.00,WeatherCatV1.02B3,2013-04-28 04:31:00,
2013-04-27 23:36:00,71.2,66.8,30.04,NW,323,4.0,4.0,86,0.00,,,0.00,WeatherCatV1.02B3,2013-04-28 04:36:00,
2013-04-27 23:41:00,71.2,66.8,30.03,West,281,3.0,5.0,86,0.00,,,0.00,WeatherCatV1.02B3,2013-04-28 04:41:00,
2013-04-27 23:46:00,71.1,66.7,30.03,West,279,0.0,3.0,86,0.00,,,0.00,WeatherCatV1.02B3,2013-04-28 04:46:00,
2013-04-27 23:51:00,71.0,66.6,30.02,WNW,288,1.0,9.0,86,0.00,,,0.00,WeatherCatV1.02B3,2013-04-28 04:51:00,
2013-04-27 23:56:00,71.0,66.6,30.02,WNW,297,3.0,6.0,86,0.00,,,0.00,WeatherCatV1.02B3,2013-04-28 04:56:00,